Tracking 30264 objects as of 16-Feb-2025
HD Live streaming from Space Station
objects crossing your sky now

PEGASUS DEB

Track PEGASUS DEB now!
10-day predictions


NORAD ID: 39927
Int'l Code: 1994-029AGA
Perigee: 484.5 km
Apogee: 547.8 km
Inclination: 81.8 °
Period: 94.8 minutes
Semi major axis: 6887 km
RCS: 0.0109 m2 (small)
Launch date: May 19, 1994
Source: United States (US)
Launch site: AIR FORCE WESTERN TEST RANGE (AFWTR)

Note: This is SATELLITE DEBRIS
Your satellite tracking list
Your tracking list is empty




NASA's NSSDC Master Catalog

Two Line Element Set (TLE):
1 39927U 94029AGA 25045.61804857  .00032981  00000-0  15293-2 0  9994
2 39927  81.8117  11.5832 0045970  88.0384 272.6112 15.18945141582289
Source of the keplerian elements: AFSPC